Location: De Greiden
(52.9496°N, 5.9137°E)
Time: 23:43:25
(UTC+00:00)

CZ-4C R/B - Pass Details

Date: 24 January 2021
Orbit: 617 x 1385 km, 63.4° (Epoch: 01 March)

Event Time Altitude Azimuth Distance (km) Brightness Sun altitude
Rises 17:33:50 0° 267° (W) 3,241 7.1 -12.9°
Reaches altitude 10° 17:36:13 10° 275° (W) 2,414 5.8 -13.3°
Maximum altitude 17:41:27 38° 344° (NNW) 1,394 3.4 -14.0°
Enters shadow 17:46:33 15° 46° (NE) 2,524 4.2 -14.8°
